User: anonymous   Login
Location: Mentone
(34.5413°N, 85.5351°W)
Time: 17:24:58
(UTC-06:00)
Language:

Centaur AC-72 - Orbit

View from above orbital plane
View from above orbital plane
View from above satellite
View from above satellite

Ground track
Ground track

The orbit data is extracted from the following two-line orbital elements,

1 21907U 92013B   17019.24752017 -.00000049  00000-0  00000+0 0  9993
2 21907  19.4721 317.3226 6946010  64.4605  13.8237  2.25606823204925
Epoch (UTC): 19 January 2017 05:56:25
Eccentricity: 0.6946010
inclination: 19.4721°
perigee height: 1121 km
apogee height: 35235 km
right ascension of ascending node: 317.3226°
argument of perigee: 64.4605°
revolutions per day: 2.25606823
mean anomaly at epoch: 13.8237°
orbit number at epoch: 20492

The dashed part of the orbit path shows where the satellite is in the earth's shadow,  

DLR